Weather in Jamshedpur

India     22°46′26″N   86°12′36″E
temp.,
°C
wind,
m/s
gust,
m/s
humid.,
%
clouds,
%
prec.,
mm/h
press.,
hPa
HPBL,
m
20 april, tue
tue2023:30+31sse12135 0.0 100659
02:30+30sw11100 0.0 100517
05:30+27wsw22374 0.0 100771
08:30+33wsw33350 0.0 1009676
11:30+40w14110 0.0 10073591
14:30+41sw1480 0.0 10044639
17:30+39sse43817 0.0 10021467
20:30+33sse49285 0.0 1005256
21 april, wed
wed2123:30+31sw37450 0.0 1006397
02:30+29sw410510 0.0 1005350
05:30+28sw39571 0.0 1007344
08:30+35sw46335 0.0 1008684
11:30+41sw351437 0.0 10063830
14:30+43w4511100 0.0 10024749
17:30+38se581850 0.0 1002594
20:30+36se2327100 0.0 1005217
22 april, thu
thu2223:30+32sw584491 0.0 1006495
02:30+30wsw2451100 0.0 1006191
05:30+29sw2350100 0.0 1007116
08:30+34w332899 0.0 1009600
11:30+40nw2215100 0.0 10072070
14:30+41w221399 0.0 10033420
17:30+37wnw2418100 0.0 1005999
20:30+34e232052 0.0 1007140
23 april, fri
fri2323:30+32w1225100 0.0 1006112
02:30+30w112888 0.0 100559
05:30+29wsw11315 0.0 100738
08:30+35wnw22205 0.0 1009612
11:30+41nw13126 0.0 10073940
14:30+42w13935 0.0 10034485
17:30+41nne2392 0.0 10021574
20:30+34ssw252749 0.0 1006277
24 april, sat
sat2423:30+30wsw374358 0.0 1007318
02:30+29sw235013 0.0 1005108
05:30+27ssw22535 0.0 1007102
08:30+34wsw33313 0.0 1009557
11:30+41s1111100 0.0 10062508
14:30+42ssw138100 0.0 10034010
17:30+40sse229100 0.0 1002438
20:30+34sse252799 0.0 1004154